GW1622 Weather Reports


Display with metric or nautical units.
time (UTC)temp
F
wind
direction
speed
MPH
gust
MPH
rain 1hr
in
rain 24hr
in
rain mn
in
humidity
%
barometer
mb
20260505053038 60 0 0.0 2.0 0.00 0.00 0.00 84 1015.9
20260505052515 60 0 0.0 2.0 0.00 0.00 0.00 84 1015.9
20260505052016 60 0 0.0 1.0 0.00 0.00 0.00 84 1016.0
20260505051534 60 0 0.0 2.0 0.00 0.00 0.00 84 1016.0
20260505051017 60 26 0.0 2.0 0.00 0.00 0.00 83 1016.1
20260505050516 60 0 0.0 3.0 0.00 0.00 0.00 83 1016.1
20260505041545 62 0 0.0 4.0 0.00 0.00 0.00 77 1016.1
20260505041014 62 0 0.0 4.0 0.00 0.00 0.00 76 1016.1
20260505040521 61 0 1.0 4.0 0.00 0.00 0.00 74 1016.0
20260505040036 61 66 0.0 2.0 0.00 0.00 0.00 73 1016.0
20260505035516 61 0 0.0 2.0 0.00 0.00 0.00 74 1016.0
20260505035015 61 66 0.0 2.0 0.00 0.00 0.00 74 1015.9
20260505034534 61 66 0.0 2.0 0.00 0.00 0.00 74 1015.9
20260505034017 61 66 0.0 2.0 0.00 0.00 0.00 73 1015.9
20260505033515 61 66 0.0 2.0 0.00 0.00 0.00 73 1015.9
20260505033035 61 66 0.0 1.0 0.00 0.00 0.00 73 1015.8
20260505032515 61 0 0.0 1.0 0.00 0.00 0.00 74 1015.7
20260505032021 61 0 0.0 1.0 0.00 0.00 0.00 75 1015.8
20260505031534 60 0 0.0 1.0 0.00 0.00 0.00 75 1015.7
20260505031018 60 0 0.0 1.0 0.00 0.00 0.00 75 1015.7
20260505030515 60 0 0.0 1.0 0.00 0.00 0.00 75 1015.7
20260505030039 60 0 0.0 1.0 0.00 0.00 0.00 75 1015.7
20260505025520 61 0 0.0 1.0 0.00 0.00 0.00 75 1015.6
20260505025014 61 66 0.0 1.0 0.00 0.00 0.00 75 1015.5
20260505024532 61 0 0.0 1.0 0.00 0.00 0.00 75 1015.4
20260505024015 61 66 0.0 1.0 0.00 0.00 0.00 75 1015.4
20260505023516 61 0 0.0 1.0 0.00 0.00 0.00 75 1015.4
20260505023034 61 66 0.0 2.0 0.00 0.00 0.00 74 1015.5
20260505022515 61 0 0.0 2.0 0.00 0.00 0.00 74 1015.5
20260505022016 61 66 0.0 1.0 0.00 0.00 0.00 74 1015.6
20260505021532 61 0 0.0 1.0 0.00 0.00 0.00 74 1015.6
20260505021015 62 0 0.0 2.0 0.00 0.00 0.00 73 1015.6
20260505020516 62 66 0.0 3.0 0.00 0.00 0.00 73 1015.6
20260505020039 62 66 0.0 3.0 0.00 0.00 0.00 72 1015.5
20260505015516 63 72 0.0 3.0 0.00 0.00 0.00 71 1015.5
20260505015016 64 338 1.0 3.0 0.00 0.00 0.00 71 1015.6
20260505014548 64 40 0.0 2.0 0.00 0.00 0.00 72 1015.5
20260505014015 64 0 0.0 2.0 0.00 0.00 0.00 72 1015.6
20260505013518 63 17 0.0 3.0 0.00 0.00 0.00 72 1015.7
20260505013042 63 86 0.0 3.0 0.00 0.00 0.00 72 1015.7
20260505012518 64 82 1.0 4.0 0.00 0.00 0.00 72 1015.6
20260505012016 64 0 1.0 4.0 0.00 0.00 0.00 71 1015.7
20260505011540 64 51 0.0 2.0 0.00 0.00 0.00 72 1015.6
20260505011017 64 0 0.0 2.0 0.00 0.00 0.00 71 1015.8
20260505010515 64 45 0.0 3.0 0.00 0.00 0.00 72 1015.8
20260505010043 64 0 0.0 4.0 0.00 0.00 0.00 71 1015.8
20260505005515 64 85 0.0 4.0 0.00 0.00 0.00 71 1015.9
20260505005015 65 78 2.0 4.0 0.00 0.00 0.00 70 1015.9
20260505004544 65 83 0.0 4.0 0.00 0.00 0.00 70 1015.8
20260505004015 65 86 1.0 4.0 0.00 0.00 0.00 70 1015.8
20260505003515 65 0 1.0 4.0 0.00 0.00 0.00 69 1015.8
20260505003051 66 89 1.0 6.0 0.00 0.00 0.00 69 1015.9
20260505002516 66 106 0.0 6.0 0.00 0.00 0.00 69 1016.0
20260505002016 65 46 1.0 6.0 0.00 0.00 0.00 69 1015.8
20260505001532 65 84 1.0 4.0 0.00 0.00 0.00 69 1015.8
20260505001020 65 97 1.0 6.0 0.00 0.00 0.00 68 1015.7
20260505000517 66 87 1.0 6.0 0.00 0.00 0.00 67 1015.7
20260505000035 67 61 1.0 4.0 0.00 0.00 0.00 66 1015.8
20260504235515 67 295 1.0 4.0 0.00 0.00 0.00 64 1015.9
20260504235015 68 259 1.0 4.0 0.00 0.00 0.00 63 1015.9
20260504234530 68 0 0.0 3.0 0.00 0.00 0.00 64 1015.9
20260504234019 67 86 1.0 4.0 0.00 0.00 0.00 63 1015.8
20260504233517 67 87 0.0 5.0 0.00 0.00 0.00 64 1015.8
20260504233036 67 144 2.0 8.0 0.00 0.00 0.00 63 1015.9
20260504232518 67 293 0.0 8.0 0.00 0.00 0.00 64 1016.2
20260504232016 67 205 1.0 8.0 0.00 0.00 0.00 61 1016.1
20260504231533 67 280 1.0 8.0 0.00 0.00 0.00 63 1016.1
20260504231014 67 9 1.0 8.0 0.00 0.00 0.00 62 1016.1
20260504230516 68 57 1.0 6.0 0.00 0.00 0.00 61 1016.1
20260504230032 69 53 2.0 6.0 0.00 0.00 0.00 60 1016.0
20260504225517 68 18 1.0 4.0 0.00 0.00 0.00 60 1016.0
20260504225017 68 107 2.0 6.0 0.00 0.00 0.00 60 1015.9
20260504224534 69 309 1.0 8.0 0.00 0.00 0.00 59 1015.9
20260504224016 69 0 2.0 8.0 0.00 0.00 0.00 56 1016.0
20260504223515 68 71 1.0 6.0 0.00 0.00 0.00 61 1016.1
20260504223050 68 207 1.0 8.0 0.00 0.00 0.00 60 1016.0
20260504222520 68 319 1.0 8.0 0.00 0.00 0.00 61 1016.2
20260504222014 68 34 2.0 8.0 0.00 0.00 0.00 59 1015.9
20260504221530 69 208 1.0 8.0 0.00 0.00 0.00 60 1016.0
20260504221015 69 217 2.0 8.0 0.00 0.00 0.00 59 1016.0
20260504220515 69 261 1.0 7.0 0.00 0.00 0.00 61 1016.3
20260504220035 69 69 2.0 8.0 0.00 0.00 0.00 62 1016.6
20260504215514 68 142 1.0 8.0 0.00 0.00 0.00 63 1016.5
20260504215019 69 63 2.0 8.0 0.00 0.00 0.00 61 1016.6
20260504214533 69 80 1.0 9.0 0.00 0.00 0.00 64 1016.5
20260504214018 69 97 2.0 9.0 0.00 0.00 0.00 62 1016.7
20260504213514 70 37 1.0 9.0 0.00 0.00 0.00 62 1016.7
20260504213032 70 14 1.0 9.0 0.00 0.00 0.00 62 1016.8
20260504212514 69 360 1.0 9.0 0.00 0.00 0.00 62 1016.7
20260504212017 70 35 2.0 9.0 0.00 0.00 0.00 60 1017.0
20260504211549 69 0 2.0 8.0 0.00 0.00 0.00 60 1017.0
20260504211015 69 66 1.0 8.0 0.00 0.00 0.00 60 1016.9
20260504210515 69 38 2.0 8.0 0.00 0.00 0.00 60 1017.0
20260504210036 70 105 1.0 11.0 0.00 0.00 0.00 60 1017.0
20260504205516 69 328 2.0 11.0 0.00 0.00 0.00 60 1017.0
20260504205016 69 123 2.0 9.0 0.00 0.00 0.00 58 1016.8
20260504204534 70 15 2.0 9.0 0.00 0.00 0.00 58 1016.7
20260504204015 70 351 2.0 8.0 0.00 0.00 0.00 56 1016.8
20260504203516 70 332 2.0 8.0 0.00 0.00 0.00 58 1016.8
20260504203033 70 338 2.0 5.0 0.00 0.00 0.00 57 1016.8
20260504202516 70 39 2.0 9.0 0.00 0.00 0.00 59 1016.8
20260504202016 70 9 2.0 9.0 0.00 0.00 0.00 60 1016.6
20260504201536 70 250 2.0 7.0 0.00 0.00 0.00 59 1016.8
20260504201015 70 136 1.0 9.0 0.00 0.00 0.00 60 1017.0
20260504200515 69 101 2.0 9.0 0.00 0.00 0.00 60 1017.0
20260504200034 69 9 3.0 9.0 0.00 0.00 0.00 60 1017.1
20260504195520 68 349 2.0 9.0 0.00 0.00 0.00 63 1017.1
20260504195016 70 48 2.0 9.0 0.00 0.00 0.00 60 1017.0
20260504194534 68 346 2.0 9.0 0.00 0.00 0.00 64 1016.9
20260504194014 68 65 3.0 9.0 0.00 0.00 0.00 63 1017.0
20260504193516 69 0 1.0 7.0 0.00 0.00 0.00 63 1017.1
20260504193032 69 309 1.0 7.0 0.00 0.00 0.00 63 1017.1
20260504192517 69 77 2.0 4.0 0.00 0.00 0.00 62 1017.1
20260504192016 69 108 1.0 6.0 0.00 0.00 0.00 62 1017.2
20260504191536 69 311 2.0 8.0 0.00 0.00 0.00 61 1017.3
20260504191015 69 74 2.0 8.0 0.00 0.00 0.00 60 1017.2
20260504190515 69 24 2.0 8.0 0.00 0.00 0.00 61 1017.3
20260504190030 69 344 1.0 7.0 0.00 0.00 0.00 62 1017.1
20260504185515 68 5 2.0 8.0 0.00 0.00 0.00 63 1017.2
20260504185016 68 65 2.0 8.0 0.00 0.00 0.00 63 1017.4
20260504184545 68 360 2.0 6.0 0.00 0.00 0.00 63 1017.4
20260504184015 68 91 2.0 6.0 0.00 0.00 0.00 63 1017.6
20260504183514 69 331 1.0 6.0 0.00 0.00 0.00 62 1017.4
20260504183034 68 73 2.0 6.0 0.00 0.00 0.00 63 1017.5
20260504182515 69 112 2.0 10.0 0.00 0.00 0.00 62 1017.5
20260504182016 68 96 1.0 10.0 0.00 0.00 0.00 63 1017.5
20260504181536 67 61 2.0 8.0 0.00 0.00 0.00 63 1017.5
20260504181016 68 330 2.0 8.0 0.00 0.00 0.00 63 1017.4
20260504180517 68 41 2.0 6.0 0.00 0.00 0.00 62 1017.4
20260504180033 67 93 1.0 6.0 0.00 0.00 0.00 65 1017.4
20260504175516 67 61 2.0 8.0 0.00 0.00 0.00 64 1017.3
20260504175018 67 28 1.0 8.0 0.00 0.00 0.00 67 1017.4
20260504174530 67 352 2.0 8.0 0.00 0.00 0.00 66 1017.2
20260504174015 68 63 1.0 5.0 0.00 0.00 0.00 68 1017.3
20260504173514 66 0 2.0 5.0 0.00 0.00 0.00 69 1017.2
20260504173030 67 86 0.0 6.0 0.00 0.00 0.00 66 1017.3
20260504172514 66 302 2.0 6.0 0.00 0.00 0.00 68 1017.2
20260504172014 66 17 2.0 5.0 0.00 0.00 0.00 66 1017.2
20260504171537 65 0 1.0 5.0 0.00 0.00 0.00 68 1017.0
20260504171015 66 0 1.0 5.0 0.00 0.00 0.00 65 1017.0
20260504170520 65 19 0.0 5.0 0.00 0.00 0.00 69 1016.9
20260504151016 60 0 0.0 4.0 0.00 0.00 0.00 77 1016.3
20260504150516 60 341 0.0 3.0 0.00 0.00 0.00 77 1016.3
20260504141018 59 0 0.0 1.0 0.00 0.00 0.00 78 1016.0
20260504140517 59 0 0.0 1.0 0.00 0.00 0.00 78 1015.9
20260504130515 58 0 0.0 1.0 0.00 0.00 0.00 80 1015.6
20260504110515 59 0 0.0 1.0 0.00 0.00 0.00 77 1015.7
20260504100514 59 0 0.0 3.0 0.00 0.00 0.00 77 1015.3
20260504081529 60 0 0.0 5.0 0.00 0.00 0.00 80 1016.0
20260504081015 60 0 0.0 5.0 0.00 0.00 0.00 80 1016.3
20260504080514 60 343 1.0 5.0 0.00 0.00 0.00 81 1016.4